Location: Bartshausen
(51.8454°N, 9.8167°E)
Time: 06:47:14
(UTC+00:00)

USA 234 - Pass Details

Date: 08 November 2025
Orbit: 1100 x 1107 km, 123.0° (Epoch: 02 December)

Event Time Altitude Azimuth Distance (km) Brightness Sun altitude
Rises 03:49:02 0° 146° (SE) 3,917 6.6 -24.6°
Reaches altitude 10° 03:51:40 10° 152° (SSE) 2,961 5.8 -24.2°
Maximum altitude 03:57:51 44° 223° (SW) 1,491 3.6 -23.2°
Enters shadow 03:58:53 41° 247° (WSW) 1,551 3.6 -23.1°
